STARLINK-30494, 57970

Orbit data source: Space-Track

STARLINK-30494, 57970 is a payload satellite owned by SpaceX/Seattle (US) in LEO that was launched on Sat, 30 Sep 2023 UTC via an FALCON 9 launch vehicle from the Air Force Eastern Test Range (AFETR). Payload-class satellites include a variety of spacecraft equipped with specific instruments for various scientific and technological missions. These include communications satellites like Starlink; space stations such as the ISS; scientific satellites like the Hubble; Earth observation satellites from companies like Planet Labs, Umbra, and HawkEye 360; GPS; miniature CubeSats for education and research; and military/defense satellites.

Loading next visibility...
Identifier
57970, 2023-151G
Orbit
LEO
Country
Flag of USUS
Related business
Manufacturer
SpaceX/Seattle
Mission
Operational Commercial Communications
Bus & Motor
STARLINK V2M, Unknown motor
Mass
730 kg wet, ~700 kg dry
Launch date (UTC)
2023-09-30 (3 years ago)
Launch vehicle
FALCON 9
Launch site
Air Force Eastern Test Range (AFETR)
Object type
Payload
Rocket body
Debris
Shape & HBR
Box + 2 Pan, 17.7 m
Radar Cross Section
33.884 m², Large (>1 m²)

Expand to show TLE details & history
Last TLE update: 1 day ago

TLE from 1 day ago
0 STARLINK-30494
1 57970U 23151G   26175.06696575  .00000375  00000-0  23155-4 0  9990
2 57970  43.0020 309.7907 0001323 258.4078 101.6625 15.27580136153724
Epoch: 2026-06-24T01:36Z
TLE epoch observation values (Epoch: 2026-06-24T01:36:25.840Z)
Latitude
-0.00005°
Longitude
13.45348°
Altitude
483.008 km
Speed
7.626 km/s
True Right ascension
20h 39m 09s
True Declination
0° 00' 00"
Sunlit
Object was in full shadow at epoch
Visualization orbit readout
Latitude
Unknown
Longitude
Unknown
Altitude
Unknown
Speed
Unknown
Apparent Right ascension
Unknown
Apparent Declination
Unknown
Sunlit
N/A
Visualization observer readout
Local Sidereal Time
16:43:47
Azimuth
Unknown
Elevation
Unknown
Doppler factor
Unknown
Orbital elements
Apogee altitude
485.902 km
Perigee altitude
484.086 km
Semi-major axis
6,863.131 km
Eccentricity
0.00013
Inclination
43.002°
RAAN
309.7907°
Arg. of periapsis
258.4078°
True anomaly
101.67735°
Mean anomaly
101.6625°
Eccentric anomaly
101.66992°
Mean motion
3.81733 °/min
Orbital period
94.31 mins
BSTAR
0.000023155
Loading maneuver chart data...
Computing Atmospheric mass density...
Loading historical data...
Loading historical data...
Loading historical data...
Loading historical data...
Loading historical data...
Loading historical data...
Loading historical data...

Documentation

Showing up to 5 results
|